Regional Weather Roundup
Issued by NWS

Home | Current Version | Previous Version | Text Only | Print | Product List | Glossary Off
Versions: 1 2 3 4 5 6 7 8 9 10 11 12 13 14 15 16 17 18 19 20 21 22 23 24 25 26 27 28 29 30 31 32 33 34 35 36 37 38 39 40 41 42 43 44 45 46 47 48 49 50

000
ASUS43 KDTX 111110
RWRMI
MICHIGAN HOURLY REGIONAL WEATHER ROUNDUP
NATIONAL WEATHER SERVICE DETROIT/PONTIAC MI
ISSUED BY NATIONAL WEATHER SERVICE GRAND RAPIDS MI
600 AM EST MON DEC 11 2017

NOTE: "FAIR" INDICATES FEW OR NO CLOUDS BELOW 12,000 FEET WITH NO
SIGNIFICANT WEATHER AND/OR OBSTRUCTION TO VISIBILITY.

MIZ047>049-052>055-059>063-066>070-074>076-081>083-111200-
SOUTHEAST LOWER MICHIGAN

CITY           SKY/WX    TMP DP  RH WIND       PRES   REMARKS
ADRIAN         CLOUDY    24  20  84 SE3       30.02F
ALMA           CLOUDY    20  15  81 CALM      30.01S
ANN ARBOR      CLOUDY    23  19  85 CALM      30.01F
BAD AXE        CLOUDY    17   9  70 CALM      30.02S
DETROIT CITY   CLOUDY    23  15  71 N5        30.04F WCI  17
DETROIT        CLOUDY    26  17  68 N5        30.04F WCI  20
FLINT          CLOUDY    20  12  71 E6        30.02F WCI  12
GROSSE ILE     CLOUDY    25  19  77 CALM      30.03F
HILLSDALE      CLOUDY    27  21  80 SE3       29.96F
HOWELL         CLOUDY    21  18  88 E3        30.00S

CITY           SKY/WX    TMP DP  RH WIND       PRES   REMARKS
JACKSON        CLOUDY    25  19  78 E6        29.98F WCI  18
LANSING        CLOUDY    22  14  71 E5        30.01F WCI  16
MASON          CLOUDY    23  12  62 E3        30.00F
MONROE         CLOUDY    23  19  87 CALM      30.03F
MT. CLEMENS    CLOUDY    21  15  78 N8        30.02F WCI  11
PONTIAC        CLOUDY    20  14  77 N6        30.01R WCI  12
PORT HOPE        N/A     20   9  62 W8        30.00S WCI  10
PORT HURON     CLOUDY    19   9  63 NW3       30.05R
TRI CITIES     CLOUDY    13  12  96 SE5       30.02F WCI   5
YPSILANTI      CLOUDY    27  19  72 CALM      30.03F
$$
MIZ043>046-050>051-056>058-064>065-071>073-077>080-111200-
SOUTHWEST LOWER MICHIGAN

CITY           SKY/WX    TMP DP  RH WIND       PRES   REMARKS
BATTLE CREEK   CLOUDY    27  21  78 CALM      30.00R
BENTON HARBOR  CLOUDY    30  21  69 S5        30.00R WCI  25
BIG RAPIDS     CLOUDY    20  15  80 CALM      29.97S
COLDWATER      CLOUDY    27  23  84 S3        30.00R
HOLLAND        CLOUDY    26  19  74 SE7       29.98F WCI  18
GRAND RAPIDS   CLOUDY    24  21  88 E6        29.99S WCI  17
KALAMAZOO      CLOUDY    28  22  78 SE3       30.00R
MARSHALL       CLOUDY    25  21  86 CALM      29.99R
MOUNT PLEASANT CLOUDY    18  12  77 CALM      29.99R
MUSKEGON       CLOUDY    25  17  72 E7        30.00S WCI  17
STURGIS        CLOUDY    26  22  85 SW3       29.99S
$$
MIZ016>042-111200-
NORTHERN LOWER MICHIGAN

CITY           SKY/WX    TMP DP  RH WIND       PRES   REMARKS
ALPENA         CLOUDY    17   9  70 NW3       29.98F
BEAVER ISLAND  CLOUDY    19  13  76 SE3       29.94F
BELLAIRE       CLOUDY    18  15  88 CALM      29.98R
CADILLAC       CLOUDY    16  12  85 S3        29.93S
CHARLEVOIX     CLOUDY    19  14  81 S6        29.98F WCI  11
GAYLORD        CLOUDY    14   8  77 S3        29.92R
HOUGHTON LAKE  CLOUDY    16  11  80 SE3       29.95F
MANISTEE       CLOUDY    21  15  78 SE6       29.96F WCI  13
OSCODA         CLOUDY    13   7  76 SW9       30.00S WCI   1
PELLSTON       CLOUDY    16  10  77 S3        29.96S
TRAVERSE CITY  CLOUDY    21  13  71 CALM      29.97S
LUDINGTON      CLOUDY    22  16  76 SE5       29.97S WCI  16
$$
MIZ007>008-015-111200-
EASTERN UPPER MICHIGAN

CITY           SKY/WX    TMP DP  RH WIND       PRES   REMARKS
KINROSS        CLOUDY     5   0  79 E7        29.95F WCI  -7
MACKINAC ISLAN CLOUDY    18  11  75 E3        29.95S
NEWBERRY       CLOUDY    13  13  97 SW3       29.92F
S. S. MARIE    CLOUDY     6   0  76 NE6       29.99R WCI  -4
$$
MIZ004>006-011>014-085-111200-
CENTRAL UPPER MICHIGAN

CITY           SKY/WX    TMP DP  RH WIND       PRES   REMARKS
MANISTIQUE     CLOUDY    14   3  60 CALM      29.93F
ESCANABA       CLOUDY    10   7  87 CALM      29.93F
MENOMINEE      CLOUDY    18  13  80 CALM      29.94F
SAWYER-GWINN   CLOUDY    10   5  83 S6        29.86S WCI   0
$$
MIZ001>003-009>011-084-111200-
WESTERN UPPER MICHIGAN

CITY           SKY/WX    TMP DP  RH WIND       PRES   REMARKS
IRON MOUNTAIN  CLOUDY    14   7  73 S7        29.86F WCI   4
HOUGHTON       CLOUDY    15   8  73 S7        29.81F WCI   5
COPPER HARBOR    N/A     16  10  77 SW7       29.85F WCI   6
IRONWOOD       LGT SNOW  16  13  88 VRB7      29.80R FOG     WCI   6
$$

ABBREVIATIONS USED IN REMARKS
   TC - TEMPERATURE IN CELSIUS
  WCI - WIND CHILL INDEX
   HX - HEAT INDEX
  VSB - VISIBILITY





USA.gov is the U.S. government's official web portal to all federal, state and local government web resources and services.